FW0127 Weather Reports


time (UTC)temp
C
wind
direction
speed
KPH
gust
KPH
rain 1hr
cm
rain 24hr
cm
rain mn
cm
humidity
%
barometer
mb
20260510153039 26 351 1.6 9.7 0.00 0.00 0.00 51 1014.6
20260510151537 26 44 0.0 4.8 0.00 0.00 0.00 51 1014.6
20260510150035 26 117 0.0 4.8 0.00 0.00 0.00 52 1014.7
20260510144542 26 62 1.6 6.4 0.00 0.00 0.00 50 1014.6
20260510143039 25 91 0.0 6.4 0.00 0.00 0.00 53 1014.5
20260510141528 25 76 1.6 8.0 0.00 0.00 0.00 52 1014.4
20260510140025 24 99 0.0 1.6 0.00 0.00 0.00 55 1014.4
20260510134523 24 122 0.0 1.6 0.00 0.00 0.00 56 1014.4
20260510133020 23 86 0.0 1.6 0.00 0.00 0.00 59 1014.3
20260510131517 22 150 0.0 1.6 0.00 0.00 0.00 63 1014.3
20260510130014 21 106 0.0 1.6 0.00 0.00 0.00 69 1014.3
20260510124512 20 108 0.0 1.6 0.00 0.00 0.00 73 1014.6
20260510123008 20 108 0.0 0.0 0.00 0.00 0.00 85 1014.5
20260510121504 18 108 0.0 0.0 0.00 0.00 0.00 91 1014.2
20260510120059 16 108 0.0 0.0 0.00 0.00 0.00 96 1014.1
20260510114555 15 108 0.0 0.0 0.00 0.00 0.00 97 1014.0
20260510113052 14 108 0.0 0.0 0.00 0.00 0.00 98 1013.9
20260510111551 13 108 0.0 0.0 0.00 0.00 0.00 98 1013.7
20260510110049 11 108 0.0 0.0 0.00 0.00 0.00 98 1013.4
20260510104557 10 108 0.0 0.0 0.00 0.00 0.00 97 1013.1
20260510103045 10 108 0.0 0.0 0.00 0.00 0.00 98 1013.0
20260510101544 10 108 0.0 0.0 0.00 0.00 0.00 98 1012.8
20260510100042 10 108 0.0 0.0 0.00 0.00 0.00 98 1012.6
20260510094554 10 108 0.0 0.0 0.00 0.00 0.00 97 1012.5
20260510093054 10 108 0.0 0.0 0.00 0.00 0.00 98 1012.3
20260510091543 10 108 0.0 0.0 0.00 0.00 0.00 97 1012.3
20260510090037 10 108 0.0 0.0 0.00 0.00 0.00 97 1012.2
20260510084536 10 108 0.0 0.0 0.00 0.00 0.00 97 1012.2
20260510083034 10 108 0.0 0.0 0.00 0.00 0.00 96 1012.1
20260510081531 10 108 0.0 0.0 0.00 0.00 0.00 96 1012.2
20260510080029 11 108 0.0 0.0 0.00 0.00 0.00 97 1012.0
20260510074527 11 108 0.0 0.0 0.00 0.00 0.00 96 1011.9
20260510073035 11 108 0.0 0.0 0.00 0.00 0.00 96 1011.7
20260510071523 11 107 0.0 0.0 0.00 0.00 0.00 95 1011.4
20260510070028 11 108 0.0 0.0 0.00 0.00 0.00 96 1011.5
20260510064521 11 108 0.0 0.0 0.00 0.00 0.00 95 1011.4
20260510063018 11 108 0.0 0.0 0.00 0.00 0.00 95 1011.4
20260510061517 12 108 0.0 0.0 0.00 0.00 0.00 94 1011.3
20260510060016 12 108 0.0 0.0 0.00 0.00 0.00 93 1011.2
20260510054513 12 108 0.0 0.0 0.00 0.00 0.00 93 1011.3
20260510053008 12 108 0.0 0.0 0.00 0.00 0.00 92 1011.4
20260510051601 12 108 0.0 0.0 0.00 0.00 0.00 92 1011.3
20260510050103 13 108 0.0 0.0 0.00 0.00 0.00 89 1011.3
20260510044554 13 108 0.0 0.0 0.00 0.00 0.00 89 1011.2
20260510043100 13 108 0.0 0.0 0.00 0.00 0.00 88 1011.5
20260510041547 13 108 0.0 0.0 0.00 0.00 0.00 87 1011.4
20260510040044 14 108 0.0 0.0 0.00 0.00 0.00 87 1011.4
20260510034544 14 108 0.0 0.0 0.00 0.00 0.00 87 1011.3
20260510033043 13 99 0.0 0.0 0.00 0.00 0.00 88 1011.1
20260510031547 13 99 0.0 0.0 0.00 0.00 0.00 88 1011.0
20260510030046 13 99 0.0 0.0 0.00 0.00 0.00 86 1011.0
20260510024544 14 99 0.0 0.0 0.00 0.00 0.00 86 1010.8
20260510023040 14 99 0.0 0.0 0.00 0.00 0.00 85 1010.7
20260510021546 15 99 0.0 0.0 0.00 0.00 0.00 83 1010.6
20260510020039 15 99 0.0 0.0 0.00 0.00 0.00 82 1010.4
20260510014540 15 99 0.0 0.0 0.00 0.00 0.00 80 1010.2
20260510013046 15 99 0.0 0.0 0.00 0.00 0.00 79 1009.8
20260510011543 16 99 0.0 0.0 0.00 0.00 0.00 78 1009.7
20260510010037 16 99 0.0 0.0 0.00 0.00 0.00 76 1009.6
20260510004536 17 99 0.0 0.0 0.00 0.00 0.00 74 1009.4
20260510003037 17 99 0.0 0.0 0.00 0.00 0.00 71 1009.3
20260510001540 18 99 0.0 0.0 0.00 0.00 0.00 68 1009.2
20260510000046 20 99 0.0 1.6 0.00 0.00 0.00 66 1009.1
20260509234535 21 99 0.0 1.6 0.00 0.00 0.00 64 1008.9
20260509233033 21 101 0.0 4.8 0.00 0.00 0.00 61 1008.8
20260509231534 22 76 0.0 3.2 0.00 0.00 0.00 61 1008.9
20260509230034 22 89 0.0 1.6 0.00 0.00 0.00 58 1008.9
20260509224531 22 94 0.0 3.2 0.00 0.00 0.00 56 1008.7
20260509223031 23 113 0.0 4.8 0.00 0.00 0.00 55 1008.8
20260509221529 23 142 0.0 6.4 0.00 0.00 0.00 53 1008.8
20260509220033 23 113 0.0 6.4 0.00 0.00 0.00 53 1008.8
20260509214528 24 205 0.0 6.4 0.00 0.00 0.00 54 1008.8
20260509213032 24 93 0.0 6.4 0.00 0.00 0.00 52 1008.8
20260509211526 23 93 1.6 8.0 0.00 0.00 0.00 54 1008.6
20260509210027 23 135 0.0 4.8 0.00 0.00 0.00 55 1008.6
20260509204525 25 103 0.0 6.4 0.00 0.00 0.00 53 1008.5
20260509203025 25 169 0.0 6.4 0.00 0.00 0.00 55 1008.6
20260509201520 25 193 1.6 6.4 0.00 0.00 0.00 55 1008.7
20260509200019 23 167 1.6 9.7 0.00 0.00 0.00 56 1008.8
20260509194516 24 114 1.6 9.7 0.00 0.00 0.00 56 1009.1
20260509193024 24 114 1.6 8.0 0.00 0.00 0.00 58 1009.2
20260509191508 23 101 1.6 8.0 0.00 0.00 0.00 61 1009.7
20260509190006 21 72 0.0 4.8 0.00 0.00 0.00 65 1010.1
20260509184512 22 131 0.0 9.7 0.00 0.00 0.00 62 1010.3
20260509183003 22 30 1.6 11.3 0.00 0.00 0.00 63 1010.4
20260509181603 21 141 0.0 3.2 0.00 0.00 0.00 66 1010.5
20260509180100 22 127 0.0 6.4 0.00 0.00 0.00 64 1010.5
20260509174621 21 149 0.0 3.2 0.00 0.00 0.00 66 1010.5
20260509173100 21 120 1.6 14.5 0.00 0.00 0.00 63 1010.6
20260509171557 22 238 1.6 14.5 0.00 0.00 0.00 61 1010.7
20260509170052 21 120 3.2 9.7 0.00 0.00 0.00 66 1011.0
20260509164550 20 103 0.0 8.0 0.00 0.00 0.00 68 1011.2
20260509163051 20 155 4.8 9.7 0.00 0.00 0.00 66 1011.2
20260509161549 20 191 6.4 16.1 0.00 0.00 0.00 65 1011.3
20260509160048 21 94 3.2 12.9 0.00 0.00 0.00 63 1011.2
20260509154546 21 96 3.2 16.1 0.00 0.00 0.00 61 1011.2